User: anonymous   Login
Location: Unspecified
(0.0000°N, 0.0000°E)
Time: 06:36:13
(UTC+02:00)
Language:

ATLAS V CENTAUR R/B - Orbit

View from above orbital plane
View from above orbital plane
View from above satellite
View from above satellite

Ground track
Ground track

The orbit data is extracted from the following two-line orbital elements,

1 27500U 02038B   15126.80403620  .00022970  00000-0  26313-2 0  9992
2 27500 017.9831 107.7829 6898692 278.8746 158.1379 02.79502683103672
Epoch (UTC): 06 May 2015 19:17:48
Eccentricity: 0.6898692
inclination: 17.9831°
perigee height: 224 km
apogee height: 29596 km
right ascension of ascending node: 107.7829°
argument of perigee: 278.8746°
revolutions per day: 2.79502683
mean anomaly at epoch: 158.1379°
orbit number at epoch: 10367

The dashed part of the orbit path shows where the satellite is in the earth's shadow,  

DLR